Location: Saratoga Springs
(43.0831°N, 73.7850°W)
Time: 09:20:44
(UTC-04:00)

Vanguard 2 Rocket - Pass Details

Date: 26 April 2024
Orbit: 556 x 3304 km, 32.9° (Epoch: 22 May)

Event Time Altitude Azimuth Distance (km) Brightness Sun altitude
Rises 22:14:10 0° 253° (WSW) 5,662 11.3 -22.4°
Reaches altitude 10° 22:17:26 10° 250° (WSW) 4,963 10.9 -22.8°
Maximum altitude 22:32:45 61° 176° (S) 3,389 9.4 -24.6°
Enters shadow 22:50:19 15° 105° (ESE) 5,785 10.5 -26.4°
